Reno, NV

7:06 AM PST on January 20, 2018 (GMT -0800)
Reno-Tahoe International

Weather History for KRNO - November, 2013

Change the Weather History Date:

Saturday, November 16, 2013

  Actual Average Record
Temperature  
Mean Temperature 47 °F 43 °F  
Max Temperature 59 °F 55 °F 69 °F (1995)
Min Temperature 34 °F 31 °F 5 °F (1909)
Degree Days  
Heating Degree Days 18 22  
Month to date heating degree days 269 294  
Since 1 July heating degree days 770 730  
Cooling Degree Days 0 0  
Month to date cooling degree days 0 0  
Year to date cooling degree days 1174 839  
Moisture  
Dew Point 24 °F    
Average Humidity 48    
Maximum Humidity 69    
Minimum Humidity 26    
Precipitation  
Precipitation 0.00 in 0.03 in 0.81 in (2017)
Month to date precipitation T 0.37  
Year to date precipitation 3.12 5.92  
Snow  
Snow 0.00 in 0.20 in 2.80 in (1931)
Month to date snowfall 0.0 1.3  
Since 1 July snowfall T 1.7  
Since 1 September snowfall 0.0 1.7  
Snow Depth 0.00 in    
Sea Level Pressure  
Sea Level Pressure 29.70 in    
Wind  
Wind Speed 11 mph (NW)    
Max Wind Speed 26 mph    
Max Gust Speed 33 mph    
Visibility 10 miles    
Events      
T = Trace of Precipitation, MM = Missing Value Source: NWS Daily Summary

Daily Weather History Graph

Daily Weather History Graph

Search for Another Location

Airport or City:

Trip Planner

Search our weather history database for the weather conditions in past years. The results will help you decide how hot, cold, wet, or windy it might be!

Date:

Astronomy

Nov. 16, 2013 Rise Set
Actual Time 6:44 AM PST 4:42 PM PST
Civil Twilight 6:15 AM PST 5:11 PM PST
Nautical Twilight 5:43 AM PST 5:44 PM PST
Astronomical Twilight 5:11 AM PST 6:16 PM PST
Moon 4:21 PM PST (11/16) 5:46 AM PST (11/16)
Length of Visible Light 10h 56m
Length of Day
9h 58m
Waxing Gibbous, 99% of the Moon is Illuminated
Nov 16
Waxing Gibbous
Nov 17
Full
Nov 25
Last Quarter
Dec 2
New
Dec 9
First Quarter

Hourly Weather History & Observations

Time (PST) Temp. Windchill Dew Point Humidity Pressure Visibility Wind Dir Wind Speed Gust Speed Precip Events Conditions
12:55 AM 34.0 °F - 24.1 °F 67% 29.67 in 10.0 mi Calm Calm - N/A   Scattered Clouds
1:55 AM 35.1 °F 31.0 °F 24.1 °F 64% 29.66 in 10.0 mi ENE 4.6 mph - N/A   Mostly Cloudy
2:55 AM 35.1 °F 31.0 °F 25.0 °F 67% 29.65 in 10.0 mi SSE 4.6 mph - N/A   Mostly Cloudy
3:55 AM 37.9 °F 33.5 °F 25.0 °F 60% 29.63 in 10.0 mi SSE 5.8 mph - N/A   Overcast
4:55 AM 48.0 °F - 21.0 °F 34% 29.62 in 10.0 mi NW 13.8 mph 20.7 mph N/A   Mostly Cloudy
5:55 AM 48.0 °F - 19.0 °F 32% 29.63 in 10.0 mi NW 12.7 mph 20.7 mph N/A   Mostly Cloudy
6:55 AM 48.0 °F - 17.1 °F 29% 29.66 in 10.0 mi NW 10.4 mph 26.5 mph N/A   Mostly Cloudy
7:55 AM 50.0 °F - 18.0 °F 28% 29.66 in 10.0 mi West 17.3 mph 24.2 mph N/A   Scattered Clouds
8:55 AM 53.1 °F - 21.0 °F 29% 29.66 in 10.0 mi NW 12.7 mph 23.0 mph N/A   Scattered Clouds
9:55 AM 55.0 °F - 24.1 °F 30% 29.66 in 10.0 mi WNW 18.4 mph 32.2 mph N/A   Scattered Clouds
10:55 AM 55.9 °F - 24.1 °F 29% 29.69 in 10.0 mi WNW 19.6 mph 25.3 mph N/A   Mostly Cloudy
11:55 AM 57.0 °F - 24.1 °F 28% 29.68 in 10.0 mi WNW 13.8 mph 25.3 mph N/A   Scattered Clouds
12:55 PM 57.9 °F - 24.1 °F 27% 29.67 in 10.0 mi NW 13.8 mph 21.9 mph N/A   Scattered Clouds
1:55 PM 59.0 °F - 24.1 °F 26% 29.67 in 10.0 mi WNW 17.3 mph 23.0 mph N/A   Partly Cloudy
2:55 PM 57.9 °F - 25.0 °F 28% 29.67 in 10.0 mi WNW 10.4 mph 23.0 mph N/A   Partly Cloudy
3:55 PM 55.0 °F - 26.1 °F 33% 29.68 in 10.0 mi WNW 16.1 mph 23.0 mph N/A   Partly Cloudy
4:55 PM 53.1 °F - 26.1 °F 35% 29.70 in 10.0 mi NW 11.5 mph 23.0 mph N/A   Partly Cloudy
5:55 PM 50.0 °F - 27.0 °F 41% 29.73 in 10.0 mi NW 18.4 mph 23.0 mph N/A   Clear
6:55 PM 48.9 °F - 26.1 °F 41% 29.75 in 10.0 mi NW 15.0 mph 23.0 mph N/A   Clear
7:55 PM 46.9 °F - 26.1 °F 44% 29.78 in 10.0 mi NW 5.8 mph - N/A   Clear
8:55 PM 45.0 °F 42.6 °F 25.0 °F 46% 29.82 in 10.0 mi East 4.6 mph - N/A   Clear
9:55 PM 44.1 °F 40.8 °F 25.0 °F 47% 29.83 in 10.0 mi NE 5.8 mph - N/A   Clear
10:55 PM 39.9 °F 35.8 °F 25.0 °F 55% 29.86 in 10.0 mi SSE 5.8 mph - N/A   Clear
11:55 PM 39.0 °F 36.8 °F 25.0 °F 57% 29.88 in 10.0 mi SW 3.5 mph - N/A   Clear